This is the latest recevied weather packets stored in our database for station/object NR0A-4. If no packets are shown the sender has not sent any weather packets the latest 10 day(s).
| Time | Temp. | Humidity | Pressure | Rain* | Wind** | Luminosity | Snow |
|---|---|---|---|---|---|---|---|
| 1778082305 | 11.67° C | 35% | 1018.5 hPa | 0 mm | - | 791 W/m² | - |
| 1778082004 | 11.11° C | 38% | 1018.6 hPa | 0 mm | - | 780 W/m² | - |
| 1778081704 | 11.67° C | 36% | 1018.7 hPa | 0 mm | - | 749 W/m² | - |
| 1778081405 | 11.11° C | 38% | 1018.8 hPa | 0 mm | - | 700 W/m² | - |
| 1778081105 | 11.11° C | 37% | 1018.6 hPa | 0 mm | - | 664 W/m² | - |
| 1778080805 | 11.11° C | 37% | 1018.5 hPa | 0 mm | - | 656 W/m² | - |
| 1778080505 | 11.11° C | 37% | 1018.6 hPa | 0 mm | - | 636 W/m² | - |
| 1778080205 | 11.11° C | 41% | 1018.6 hPa | 0 mm | - | 624 W/m² | - |
| 1778079905 | 10.56° C | 39% | 1018.7 hPa | 0 mm | - | 615 W/m² | - |
| 1778079604 | 10.56° C | 41% | 1018.8 hPa | 0 mm | - | 599 W/m² | - |
| 1778079304 | 10.56° C | 40% | 1018.7 hPa | 0 mm | - | 587 W/m² | - |
| 1778079005 | 10.56° C | 41% | 1018.8 hPa | 0 mm | - | 573 W/m² | - |
| 1778078704 | 10.56° C | 41% | 1018.8 hPa | 0 mm | - | 557 W/m² | - |
| 1778078405 | 10.56° C | 42% | 1018.9 hPa | 0 mm | - | 547 W/m² | - |
| 1778078104 | 10° C | 44% | 1018.9 hPa | 0 mm | - | 529 W/m² | - |
| 1778077804 | 9.44° C | 43% | 1018.8 hPa | 0 mm | - | 513 W/m² | - |
| 1778077504 | 9.44° C | 45% | 1018.7 hPa | 0 mm | - | 497 W/m² | - |
| 1778077204 | 8.89° C | 43% | 1018.7 hPa | 0 mm | - | 487 W/m² | - |
| 1778076904 | 8.89° C | 43% | 1018.7 hPa | 0 mm | - | 473 W/m² | - |
| 1778076604 | 8.89° C | 45% | 1018.7 hPa | 0 mm | - | 454 W/m² | - |
| 1778076304 | 8.89° C | 46% | 1018.7 hPa | 0 mm | - | 443 W/m² | - |
| 1778076004 | 8.33° C | 47% | 1018.7 hPa | 0 mm | - | 425 W/m² | - |
| 1778075704 | 7.78° C | 48% | 1018.7 hPa | 0 mm | - | 410 W/m² | - |
| 1778075404 | 7.78° C | 53% | 1018.7 hPa | 0 mm | - | 394 W/m² | - |
| 1778075104 | 7.22° C | 52% | 1018.7 hPa | 0 mm | - | 378 W/m² | - |
* Rain latest hour (hover to see other rain measurements)
** Current wind speed in m/s (hover to see current wind gust speed)